Location: Tamazert
(32.6352°N, 5.2072°W)
Time: 22:33:59
(UTC+00:00)

MINOTAUR 4 R/B - Pass Details

Date: 22 May 2022
Orbit: 465 x 472 km, 98.0° (Epoch: 24 June)

Event Time Altitude Azimuth Distance (km) Brightness Sun altitude
Rises 04:46:44 0° 171° (S) 2,489 7.5 -6.7°
Reaches altitude 10° 04:48:47 10° 174° (S) 1,619 6.5 -6.3°
Maximum altitude 04:52:14 70° 258° (WSW) 502 3.9 -5.7°
Drops below altitude 10° 04:55:44 10° 343° (NNW) 1,636 6.9 -5.0°
Sets 04:57:48 0° 346° (NNW) 2,519 7.9 -4.7°
